Regional Weather Roundup
Issued by NWS

Home | Current Version | Previous Version | Text Only | Print | Product List | Glossary Off
Versions: 1 2 3 4 5 6 7 8 9 10 11 12 13 14 15 16 17 18 19 20 21 22 23 24 25 26 27 28 29 30 31 32 33 34 35 36 37 38 39 40 41 42 43 44 45 46 47 48 49 50

000
ASUS45 KTFX 210910
RWRMT
MONTANA REGIONAL WEATHER ROUNDUP
NATIONAL WEATHER SERVICE GREAT FALLS MT
300 AM MDT THU SEP 21 2017

NOTE: "FAIR" INDICATES FEW OR NO CLOUDS BELOW 12000 FEET WITH NO
SIGNIFICANT WEATHER AND/OR OBSTRUCTIONS TO VISIBILITY.

MTZ001>007-043-211000-
WEST OF THE DIVIDE

CITY           SKY/WX    TMP DP  RH WIND       PRES   REMARKS
KALISPELL      CLOUDY    40  37  89 W5        29.74R
MISSOULA       CLOUDY    41  38  89 NW3       29.77R
BUTTE          CLOUDY    33  32  96 SE3       29.78R
MULLAN PASS    CLOUDY    30  28  92 VRB3      29.72S FOG
ANACONDA         N/A     34  28  80 SW5       29.78R
DEER LODGE       N/A     34  30  86 CALM      29.79R
EUREKA           N/A     43  37  81 CALM      29.73R
HAMILTON         N/A     39  36  87 S9        29.78R
LIBBY            N/A     32  32 100 CALM      29.75R
PLAINS           N/A     43  38  82 CALM      29.78
$$

MTZ008-052>055-211000-
SOUTHWEST MONTANA

CITY           SKY/WX    TMP DP  RH WIND       PRES   REMARKS
BOZEMAN        CLOUDY    44  39  82 S5        29.76R
DILLON         CLOUDY    38  33  82 CALM      29.75R
W YELLOWSTONE  CLOUDY    36  34  93 MISG      29.78S
ENNIS          CLOUDY    41  36  81 N5        29.80R
THREE FORKS      N/A     40  36  86 CALM      29.77S
TWIN BRIDGES     N/A     38  31  76 CALM      29.77
$$

MTZ009-010-012-014-046-048-049-054-211000-
EAST SLOPES AND CENTRAL MONTANA

CITY           SKY/WX    TMP DP  RH WIND       PRES   REMARKS
CUT BANK       CLOUDY    38  30  73 NW8       29.71R
GREAT FALLS    CLOUDY    43  29  57 SW16      29.70R
HELENA         PTCLDY    42  32  67 SW7       29.74S
CHOTEAU          N/A     39  27  60 S5        29.72R
RAYNESFORD     MOCLDY    44  27  52 SW3       29.71R
$$

MTZ011-013-016-021-045-047-050-051-211000-
NORTH CENTRAL MONTANA

CITY           SKY/WX    TMP DP  RH WIND       PRES   REMARKS
HAVRE          PTCLDY    44  34  67 SW12      29.67R
LEWISTOWN      CLOUDY    43  33  68 SW13      29.70R
N BAR RANCH    MOCLDY    45  27  49 VRB5      29.72S
CHINOOK          N/A     45  30  57 W5        29.67R
GEYSER         MOCLDY    43  29  58 W14       29.68S
JUDITH GAP     MOCLDY    40  31  70 NW8       29.70S
$$

MTZ017>020-022>027-061-062-211000-
NORTHEAST MONTANA

CITY           SKY/WX    TMP DP  RH WIND       PRES   REMARKS
GLASGOW        CLOUDY    49  38  65 W5        29.63R
JORDAN           N/A     49  40  71 W5        29.66R
SIDNEY         CLOUDY    42  39  89 S5        29.65R
WOLF POINT     CLOUDY    45  39  79 CALM      29.63R
MALTA          CLEAR     43  36  75 W7        29.65S
POPLAR           N/A     45  37  76 NE3       29.63S
SCOBEY           N/A     43  32  65 CALM      29.63
$$

MTZ028>42-056>058-211000-
SOUTHCENTRAL AND SOUTHEAST MONTANA

CITY           SKY/WX    TMP DP  RH WIND       PRES   REMARKS
BAKER          CLOUDY    54  34  46 CALM      29.66R
BILLINGS       LGT RAIN  49  41  74 SW6       29.73R
LIVINGSTON     LGT RAIN  43  41  93 W7        29.74F
MILES CITY     CLOUDY    53  38  56 W8        29.68R
BIG TIMBER     PTCLDY    43  39  87 SW17G23   29.74S
EKALAKA          N/A     63  26  24 S1        29.70
LAUREL           N/A     48  43  81 CALM      29.73S
$$

REGIONAL REPORTS...DAKOTAS

CITY           SKY/WX    TMP DP  RH WIND       PRES   REMARKS
WILLISTON      CLOUDY    44  39  82 CALM      29.64R
MINOT          CLOUDY    57  38  48 S13       29.65R
DICKINSON      CLOUDY    54  35  48 S9        29.64F
BEACH            N/A     50  34  53 CALM      29.68F
CROSBY           N/A     43  39  87 SW9       29.63S
TIOGA            N/A     39  39 100 SE5       29.67R
WATFORD CITY     N/A     45  39  81 CALM      29.65R
BISMARCK       MOCLDY    55  40  56 SE10      29.71F
GRAND FORKS    CLEAR     51  46  83 S8        29.81F
FARGO          PTCLDY    57  47  69 SE14      29.85S
BUFFALO SD       N/A     63  36  36 SE15      29.60S
$$

REGIONAL REPORTS...WYOMING/IDAHO/WASHINGTON

CITY           SKY/WX    TMP DP  RH WIND       PRES   REMARKS
GILLETTE       MOCLDY    51  43  74 CALM      29.67S
SHERIDAN       CLOUDY    53  37  54 VRB3      29.68F
BUFFALO WY     CLOUDY    52  30  43 NW15      29.70F
CODY           LGT RAIN  46  42  86 VRB3      29.73S
IDAHO FALLS    LGT RAIN  44  43  96 S6        29.78R
SALMON         CLOUDY    37  36  96 CALM      29.79S
BOISE          LGT RAIN  47  44  90 N6        29.78R FOG
SPOKANE        CLOUDY    39  39 100 S3        29.77R
$$

REGIONAL REPORTS...ALBERTA

CITY           SKY/WX    TMP DP  RH WIND       PRES   REMARKS
EDMONTON       LGT RAIN  37  36  93 NW14      29.63R WCI  29
CALGARY        MOCLDY    37  30  75 N21G32    29.67R WCI  27
LETHBRIDGE     CLOUDY    41  32  70 W9        29.69R
MEDICINE HAT   MOCLDY    34  30  86 SW6       29.66R WCI  29
$$

REGIONAL REPORTS...SASKATCHEWAN

CITY           SKY/WX    TMP DP  RH WIND       PRES   REMARKS
SWIFT CURRENT  CLEAR     32  25  74 W12       29.61R WCI  23
REGINA         CLOUDY    41  34  75 S8        29.58R
SASKATOON      CLEAR     34  32  93 SW8       29.54S WCI  27
$$



USA.gov is the U.S. government's official web portal to all federal, state and local government web resources and services.